Location: Boussac
(44.2782°N, 2.3665°E)
Time: 07:27:27
(UTC+00:00)

Daily predictions for brighter satellites

Satellite Brightness Start Highest point End
(mag) Time Altitude Azimuth Time Altitude Azimuth Time Altitude Azimuth
Cosmos 1459 Rocket 4.0 19:33:52 10° S 19:40:05 83° E 19:46:14 10° N
CZ-4B R/B 3.9 19:38:59 10° SSE 19:43:00 84° ENE 19:47:03 10° NNW
CZ-4 R/B 1.1 19:39:58 10° SSE 19:43:34 77° ENE 19:47:13 10° N
Cosmos 1980 Rocket 2.3 19:38:01 10° NNW 19:43:45 84° WSW 19:49:25 10° SSE
Cosmos 2228 3.5 19:40:36 10° SSE 19:44:22 37° E 19:48:09 10° NNE
COSMOS 2406 3.9 19:39:36 10° SSE 19:44:37 32° ESE 19:49:38 10° NE
USA 186 3.9 19:44:28 10° ENE 19:44:46 10° ENE 19:45:05 10° ENE
CSL-04 Rocket 4.0 19:41:07 10° S 19:46:36 75° WSW 19:52:03 10° NNW
ISS -1.7 19:45:10 10° WNW 19:48:08 28° NNW 19:51:05 10° NE
Cosmos 2084 Rocket 3.5 19:43:57 10° NW 19:48:09 73° NE 19:52:24 10° SE
Cosmos 1461 3.5 19:45:26 10° S 19:48:32 26° ESE 19:51:39 10° ENE
Cosmos 1992 Rocket 4.4 19:44:08 10° S 19:48:58 41° ESE 19:53:49 10° NE
Cosmos 1455 Rocket 3.0 19:44:40 10° S 19:49:02 70° E 19:53:25 10° NNE
SL-08 R/B 4.0 19:45:10 10° NNE 19:49:32 34° E 19:53:48 10° SSE
Cosmos 1802 Rocket 4.0 19:43:47 10° S 19:49:55 74° E 19:56:03 10° NNE
Cosmos 1743 2.1 19:47:28 10° N 19:50:28 64° E 19:53:27 10° SSE
Delta 2 Rocket 4.4 19:49:33 10° SW 19:51:35 16° S 19:53:35 10° SE
Terra 2.0 19:47:05 10° SSE 19:51:40 58° ENE 19:56:17 10° N
Cosmos 1892 Rocket 3.5 19:48:25 10° N 19:52:43 70° E 19:56:59 10° SSE
Okean O Rocket 2.7 19:52:44 10° SE 19:56:25 29° ENE 20:00:07 10° N
Cosmos 2333 Rocket 3.4 19:54:33 10° N 19:59:31 29° NE 20:04:28 10° ESE
NOSS 3-3 (A) 3.6 19:57:17 10° SSW 20:02:20 82° SE 20:08:20 10° NE
Okean 1 Rocket 4.5 19:58:23 10° SSW 20:02:33 42° WNW 20:06:47 10° N
Cosmos 1437 Rocket 4.0 20:03:18 12° SE 20:05:27 19° E 20:08:04 10° NE
CZ-4B DEB 4.4 20:03:17 10° S 20:08:48 77° WSW 20:14:21 10° NNW
Cosmos 2360 Rocket 3.8 20:05:01 10° N 20:09:22 22° NE 20:13:40 10° E
Milstar 3 4.4 20:05:42 10° SW 20:10:12 19° S 20:15:14 10° SSE
Helios 1A Rocket 2.2 20:07:43 10° NNE 20:10:52 84° WNW 20:14:00 10° SSW
CZ-4B R/B 3.3 20:06:19 10° SSE 20:11:58 83° ENE 20:17:36 10° NNW
Cosmos 2233 Rocket 4.0 20:07:21 10° S 20:13:30 71° E 20:19:38 10° NNE
Cosmos 1302 Rocket 4.4 20:11:08 10° SSW 20:16:16 66° WNW 20:21:27 10° NNE
Okean-O 3.0 20:14:53 13° SE 20:18:29 47° ENE 20:22:41 10° N
Cosmos 909 Rocket 4.0 20:13:10 10° SSW 20:19:33 88° ESE 20:26:00 10° NE
Cosmos 2219 Rocket 4.1 20:18:06 10° N 20:21:55 18° NE 20:25:45 10° E
Cosmos 1758 Rocket 4.1 20:18:32 10° N 20:22:45 42° ENE 20:25:50 17° SE
GEOS 3 Rocket 4.0 20:22:54 12° SSE 20:27:45 61° SW 20:33:05 10° NW
ADEOS 3.7 20:25:27 10° S 20:30:39 75° WSW 20:35:53 10° NNW
NOSS 3-3 (C) 4.0 20:29:46 10° SW 20:34:55 72° NW 20:41:04 10° NE
Cosmos 220 Rocket 4.3 20:31:55 14° S 20:35:05 40° ESE 20:38:55 10° NE
Cosmos 2322 Rocket 3.1 20:36:59 10° NNW 20:42:15 38° NE 20:45:49 19° ESE
Cosmos 2082 Rocket 3.5 20:39:09 10° SW 20:44:35 44° WNW 20:50:03 10° NNE
Cosmos 1602 Rocket 4.1 20:42:35 10° N 20:46:42 42° ENE 20:48:44 25° SE
Tsikada Rocket 4.2 20:41:04 10° NNW 20:47:12 69° W 20:53:17 10° S
NOSS 3-4 (A) 4.2 20:42:54 10° NNW 20:49:28 55° NE 20:55:07 19° ESE
NOSS 3-4 (C) 4.2 20:43:31 10° NNW 20:50:07 54° NE 20:55:45 19° ESE
DELTA 2 R/B (1) 3.8 20:44:57 10° W 20:50:21 52° S 20:53:40 22° ESE
CZ-4B R/B 3.1 20:49:58 29° ESE 20:51:06 40° ENE 20:54:22 10° N
Cosmos 2369 4.5 20:45:45 10° NW 20:51:12 47° WSW 20:56:03 13° S
YAOGAN 11 4.2 20:49:20 10° NNE 20:53:47 84° WNW 20:58:15 10° SSW
Cosmos 2098 Rocket 3.6 20:53:24 25° SSE 20:55:36 42° E 20:59:36 10° NNE
Cosmos 2151 2.8 20:52:53 10° N 20:57:00 79° E 20:59:05 28° SSE
Ariane Rocket 3.3 20:59:02 26° SE 21:01:37 52° ENE 21:06:31 10° N
Cosmos 1626 Rocket 3.8 20:58:28 10° NNW 21:02:49 65° W 21:05:43 20° S
Spot 2 Rocket 4.1 21:03:00 15° S 21:06:57 53° W 21:11:53 10° NNW
Cosmos 2278 3.7 21:03:51 10° NNW 21:09:36 81° ENE 21:12:37 29° SSE
SPOT 3 Rocket 3.5 21:09:24 28° SSE 21:12:12 83° ENE 21:17:21 10° NNW
Cosmos 1763 Rocket 3.9 21:10:53 30° SSE 21:12:45 41° ESE 21:17:42 10° NE
SL-16 R/B 2.3 21:07:56 10° NNW 21:13:38 75° WSW 21:16:43 28° SSE
USA 186 2.9 21:12:57 25° SW 21:13:47 30° W 21:16:17 10° NNW
Meteor 1-5 Rocket 4.4 21:09:01 10° N 21:14:46 62° ENE 21:17:38 30° SSE
USA 290 2.2 21:18:07 57° E 21:18:07 57° E 21:20:59 10° NNE
Cosmos 1606 Rocket 3.6 21:17:14 39° SSE 21:18:30 54° E 21:22:42 10° NNE
Cosmos 1513 Rocket 4.5 21:15:01 15° S 21:20:20 85° W 21:26:30 10° N
Cosmos 1464 Rocket 3.9 21:18:41 25° S 21:22:20 70° E 21:28:29 10° NNE
Cosmos 1933 3.9 21:19:51 19° SSW 21:22:21 51° W 21:26:05 10° N
CZ-4B R/B 3.3 21:23:15 36° SSE 21:25:14 88° E 21:30:07 10° NNW
ISS -1.5 21:22:51 10° NW 21:25:37 23° N 21:28:15 11° ENE
Okean 1 3.2 21:25:54 51° E 21:25:57 51° E 21:29:26 10° NNE
Cosmos 1726 Rocket 3.7 21:25:49 43° ESE 21:26:12 45° E 21:30:05 10° NNE
BREEZE-M DEB (TANK) 3.3 21:25:09 10° WNW 21:27:27 24° N 21:28:12 19° NNE
COSMOS 2406 4.5 21:23:19 10° SW 21:28:44 42° WNW 21:34:11 10° NNE
Terra 4.3 21:26:40 10° SW 21:29:32 16° W 21:32:27 10° NW
Okean O Rocket 3.2 21:29:45 15° SSW 21:32:33 27° W 21:36:14 10° NW
Cosmos 1536 4.4 21:34:22 10° NNE 21:36:59 20° ENE 21:36:59 20° ENE
Cosmos-2242 3.8 21:37:47 33° E 21:37:47 33° E 21:41:18 10° NNE
Cosmos 1428 Rocket 4.4 21:33:11 10° N 21:39:25 76° E 21:42:00 37° SSE
Cosmos 1777 Rocket 4.0 21:36:21 10° NNW 21:41:36 79° WSW 21:43:21 42° S
Cosmos 1092 Rocket 4.5 21:37:24 10° N 21:43:17 45° ENE 21:45:20 34° ESE
Cosmos 2333 Rocket 2.8 21:38:32 10° NW 21:44:00 49° WSW 21:46:30 30° SSW
Cosmos 1833 4.1 21:44:13 27° SSW 21:47:26 82° ESE 21:53:05 10° NNE
Okean 1-7 Rocket 3.7 21:44:40 10° NNW 21:49:08 69° W 21:50:19 47° SSW
Cosmos 1503 Rocket 3.9 21:46:28 10° NNW 21:51:40 84° WSW 21:53:04 49° S
CZ-2C R/B 3.3 21:52:44 38° NW 21:52:44 38° NW 21:54:46 10° NNW
Cosmos 2360 Rocket 2.3 21:48:14 10° NNW 21:53:54 70° WSW 21:55:44 43° S
Cosmos 1766 4.1 21:54:33 10° N 21:56:45 32° NE 21:56:45 32° NE
Cosmos 2034 Rocket 4.0 21:58:36 35° S 22:01:29 89° WNW 22:07:52 10° N
Cosmos 2221 4.4 22:03:18 18° ENE 22:03:18 18° ENE 22:05:22 10° NE
Cosmos 2333 4.3 21:58:21 10° NNW 22:04:03 70° WSW 22:05:42 47° S
Cosmos 2219 Rocket 2.1 22:00:56 10° NNW 22:06:38 88° WSW 22:08:05 52° SSE
Cosmos 1354 Rocket 3.9 22:01:26 10° NNW 22:06:43 90° SW 22:07:46 58° SSE
Cosmos 540 Rocket 3.6 22:07:45 35° SW 22:09:55 71° WNW 22:15:05 10° NNE
Cosmos 1825 Rocket 4.3 22:08:55 10° NNW 22:13:04 44° W 22:13:51 40° WSW
Cosmos 2279 Rocket 4.3 22:16:39 43° ESE 22:17:51 48° E 22:23:49 10° NNE
Helios 1A 3.0 22:14:42 10° NNE 22:18:06 63° NE 22:18:06 63° NE
Cosmos 1953 Rocket 3.6 22:15:39 10° NNW 22:19:57 66° W 22:20:10 65° WSW
RESURS DK-1 3.5 22:17:07 10° N 22:20:42 31° NE 22:20:45 31° ENE
Cosmos 1707 4.2 22:23:33 25° N 22:23:33 25° N 22:24:55 10° N
Aureole 1 Rocket 4.0 22:16:34 10° NNW 22:22:35 81° ENE 22:24:34 49° SSE
Cosmos 1634 Rocket 3.9 22:22:33 52° SSE 22:24:09 77° E 22:30:22 10° N
Cosmos 2322 Rocket 3.2 22:21:07 10° NW 22:26:13 35° WSW 22:27:37 31° SW
Cosmos 1937 Rocket 4.4 22:24:28 10° N 22:29:12 36° ENE 22:30:08 33° E
Cosmos 2058 Rocket 3.0 22:30:59 72° W 22:31:04 73° W 22:35:24 10° N
Cosmos 468 Rocket 4.0 22:30:14 58° SSW 22:31:19 83° WNW 22:36:37 10° NNE
Geosat 4.0 22:29:28 10° NNE 22:34:30 79° WNW 22:35:38 54° SW
CZ-2C R/B 4.3 22:30:33 10° NNE 22:34:15 43° ENE 22:34:15 43° ENE
BREEZE-M DEB 4.2 22:31:38 10° WSW 22:36:15 90° S 22:48:24 10° E
Cosmos 2026 Rocket 4.3 22:33:30 10° NNW 22:39:46 60° W 22:41:40 43° SSW
Cosmos 44 3.3 22:35:16 10° NW 22:40:40 79° WSW 22:41:01 74° S
Meteor 2-9 Rocket 4.3 22:35:24 10° N 22:40:45 56° ENE 22:41:24 52° ESE
Cosmos 2237 Rocket 3.6 22:40:03 10° N 22:45:00 30° NE 22:47:09 23° E
Cosmos 2266 Rocket 4.5 22:43:33 10° N 22:49:19 44° ENE 22:50:26 40° ESE
USA 234 3.6 22:43:51 10° ENE 22:49:35 43° ESE 22:49:35 43° ESE
Cosmos 1470 4.1 22:47:25 10° N 22:49:19 31° N 22:49:19 31° N
ARIANE 5 R/B 3.0 22:52:41 57° ENE 22:52:41 57° ENE 22:56:51 10° N
ALOS 2 3.2 22:54:46 49° ENE 22:54:46 49° ENE 22:58:47 10° N
Cosmos 2227 Rocket 4.0 22:55:50 17° E 22:55:50 17° E 22:58:35 10° ENE
Helios 1B rocket 3.4 22:58:18 36° NW 22:58:18 36° NW 23:00:35 10° NNW
COSMOS 2428 2.6 22:53:10 10° NNW 22:58:53 80° ENE 22:59:34 69° SE
ISS -1.6 22:59:37 10° NW 23:01:11 24° NW 23:01:11 24° NW
Cosmos 2263 Rocket 4.4 23:03:56 11° E 23:03:56 11° E 23:05:09 10° ENE
Cosmos 1898 Rocket 3.3 22:59:14 10° NNW 23:04:26 85° WSW 23:04:33 84° SSW
CZ-2C R/B 4.0 23:03:54 10° NNE 23:09:18 39° E 23:09:26 39° E
Meteor 1-11 Rocket 3.7 23:04:02 10° N 23:09:39 64° ENE 23:10:11 61° ESE
Meteor 1-10 Rocket 4.2 23:11:29 68° SE 23:12:04 74° E 23:18:00 10° NNE
PSLV R/B 4.0 23:13:42 10° NNE 23:17:16 57° NE 23:17:16 57° NE
Meteor 1-27 Rocket 3.8 23:25:50 61° ESE 23:26:11 62° E 23:31:51 10° NNE
Cosmos 841 Rocket 3.9 23:27:23 50° W 23:28:06 54° WNW 23:33:15 10° NNE
Cosmos 2297 Rocket 2.0 23:27:59 77° SE 23:28:08 77° ESE 23:33:47 10° NNE
NOSS 0 Rocket 3.7 23:23:59 10° NNW 23:30:10 79° WSW 23:30:48 70° S
Cosmos 1975 4.4 23:31:23 10° NNW 23:33:29 28° NW 23:33:29 28° NW
Spot 4 4.3 23:36:12 51° W 23:36:12 51° W 23:40:28 10° NNW
Cosmos 2221 3.7 23:39:35 35° WNW 23:39:35 35° WNW 23:43:02 10° N
Cosmos 158 Rocket 4.5 23:39:40 49° E 23:39:40 49° E 23:44:29 10° NNE
Cosmos 1812 Rocket 4.2 23:39:58 48° NW 23:39:58 48° NW 23:43:51 10° N
Cosmos 2322 4.3 23:37:03 10° NW 23:42:12 41° WSW 23:42:12 41° WSW
MetOp-A 3.9 23:42:38 76° NE 23:42:38 76° NE 23:47:09 10° N
Meteor 1-16 4.5 23:38:58 10° N 23:44:27 87° E 23:44:39 83° SE
ACS3 Solar Sail 2.9 23:40:18 10° NNE 23:45:21 28° E 23:46:10 27° ESE
Cosmos 2219 Rocket 4.3 23:47:20 10° WNW 23:49:40 13° W 23:49:46 13° W
